(240) Vanadis
ephemeris date magn radius delta ra dec elong phase
Today26 Aug 202615.33.216 AU3.550 AU14h13m-11°38'62.8°16.2°
Opposition3 Jul 202713.02.986 AU1.969 AU18h47m-22°12'179.2°0.3°
(240) Vanadis - 2026-08-26
astro.vanbuitenen.nl


 
-1 year
-1 month
-1 day
Now
+1 day
+1 month
+1 year

The interactive orbit chart above shows the body's path through the solar system and its position at the given date. Green and blue lines are shown perpendicular to the ecliptic plane: Green if the path is above the ecliptic plane, blue if it is below. (Left-click and drag to rotate the view; Right-click and drag to move the view; Use scroll wheel to zoom in our out.)

The orbital elements of Vanadis are:

            e (Eccentricity)                : 0.2087531
            a (Semimajor axis)              : 2.6627914
            i (Inclination)                 : 2.10628
            Ω (Longitude of ascending node) : 115.04787
            ω (Argument of perihelion)      : 300.70314
            M (Mean anomaly)                : 155.84946
            Epoch                           : 2026 Jun 09

            L (Longitude of perihelion)     : 55.76801
            B (Latitude of perihelion)      : -1.81092
            P (Orbital period in years)     : 4.35            
        

The light curve chart below shows the estimated development of the minor planet's magnitude.


The all-sky chart below shows the path of the minor planet over the same period as the light curve. The current position is marked yellow.





The following chart shows the path of the minor planet in the next few days. The field of view is optimized for (~10x50) binoculars and finderscopes.




Ephemerides:
Date       Time       RA (2000)    DEC (2000)    delta   radius  elong  phase   PA    magn
2026-08-26 00:00 UT   14 13 59.5   -11 38 43     3.550    3.216   62.8   16.2   108   15.3 
2026-08-26 04:01 UT   14 14 09.5   -11 39 40     3.552    3.216   62.7   16.2   108   15.3 
2026-08-27 00:00 UT   14 14 59.6   -11 44 24     3.563    3.216   62.1   16.1   108   15.3 
2026-08-28 00:00 UT   14 16 00.2   -11 50 07     3.576    3.217   61.4   16.0   108   15.3 
2026-08-29 00:00 UT   14 17 01.4   -11 55 51     3.588    3.217   60.7   15.9   108   15.3 
2026-08-30 00:00 UT   14 18 03.1   -12 01 36     3.601    3.217   60.0   15.8   108   15.3 
2026-08-31 00:00 UT   14 19 05.3   -12 07 23     3.613    3.217   59.3   15.7   108   15.3 
2026-09-01 00:00 UT   14 20 08.0   -12 13 10     3.625    3.217   58.6   15.5   108   15.3 
2026-09-02 00:00 UT   14 21 11.2   -12 18 58     3.638    3.217   57.9   15.4   108   15.3 
2026-09-03 00:00 UT   14 22 14.9   -12 24 48     3.650    3.217   57.2   15.3   108   15.3 
2026-09-04 00:00 UT   14 23 19.1   -12 30 38     3.662    3.218   56.5   15.2   108   15.3 
2026-09-05 00:00 UT   14 24 23.8   -12 36 29     3.674    3.218   55.8   15.0   108   15.3 
2026-09-06 00:00 UT   14 25 29.0   -12 42 20     3.686    3.218   55.2   14.9   108   15.3 
2026-09-07 00:00 UT   14 26 34.7   -12 48 13     3.697    3.218   54.5   14.8   107   15.3 
2026-09-08 00:00 UT   14 27 40.9   -12 54 06     3.709    3.218   53.8   14.6   107   15.3 
2026-09-09 00:00 UT   14 28 47.5   -12 59 59     3.720    3.218   53.1   14.5   107   15.3 
2026-09-10 00:00 UT   14 29 54.6   -13 05 53     3.732    3.218   52.4   14.4   107   15.3 
2026-09-11 00:00 UT   14 31 02.1   -13 11 48     3.743    3.218   51.7   14.2   107   15.3 
2026-09-12 00:00 UT   14 32 10.2   -13 17 43     3.754    3.218   51.1   14.1   107   15.3 
2026-09-13 00:00 UT   14 33 18.6   -13 23 38     3.765    3.218   50.4   13.9   107   15.3 
2026-09-14 00:00 UT   14 34 27.5   -13 29 34     3.776    3.218   49.7   13.8   107   15.3 
2026-09-15 00:00 UT   14 35 36.8   -13 35 29     3.787    3.218   49.0   13.6   107   15.3 
2026-09-16 00:00 UT   14 36 46.6   -13 41 25     3.798    3.218   48.4   13.5   107   15.3 
2026-09-17 00:00 UT   14 37 56.8   -13 47 21     3.808    3.219   47.7   13.4   106   15.3 
2026-09-18 00:00 UT   14 39 07.4   -13 53 17     3.819    3.219   47.0   13.2   106   15.3 
2026-09-19 00:00 UT   14 40 18.4   -13 59 12     3.829    3.219   46.3   13.1   106   15.3 
2026-09-20 00:00 UT   14 41 29.8   -14 05 08     3.839    3.219   45.7   12.9   106   15.3 
2026-09-21 00:00 UT   14 42 41.6   -14 11 03     3.849    3.219   45.0   12.7   106   15.3 
2026-09-22 00:00 UT   14 43 53.9   -14 16 58     3.859    3.219   44.3   12.6   106   15.3 
2026-09-23 00:00 UT   14 45 06.5   -14 22 53     3.869    3.219   43.7   12.4   106   15.3 
2026-09-24 00:00 UT   14 46 19.4   -14 28 48     3.879    3.219   43.0   12.3   106   15.3 


    Terminology:
            
    delta:  distance between minor planet and earth in AU
    radius: distance between minor planet and sun in AU
    magn:   magnitude (brightness) estimate    
    ra:     right ascension in hours (24h = 360deg)
    dec:    declination in degrees
    elong:  elongation in degrees (angle sun-earth-minor planet)    
    phase:  phase angle in degrees (angle sun-minor planet-earth)        
    AU:     Astronomical Unit (mean distance between earth and sun: 149597870.7 km
    

Orbital elements provided by the MPC (Minor Planet Center).
Calculations by a modified version of AAPlus, a C# implementation of the AA+ project by PJ Naughter from the algorithms presented in the book "Astronomical Algorithms" by Jean Meeus.
NGC2000 dso catalog and star labels from VizieR as provided by the Strasbourg astronomical Data Center.
Tycho2 catalog from the ESO archive.